GW2924 Weather Reports


Display with metric or nautical units.
time (UTC)temp
F
wind
direction
speed
MPH
gust
MPH
rain 1hr
in
rain 24hr
in
rain mn
in
humidity
%
barometer
mb
20260903082055 69 122 0.0 3.0 0.00 0.00 0.00 95 1011.3
20260903081619 69 139 1.0 3.0 0.00 0.00 0.00 95 1011.3
20260903081051 69 129 0.0 1.0 0.00 0.00 0.00 94 1011.2
20260903080558 69 130 0.0 1.0 0.00 0.00 0.00 94 1011.2
20260903080106 69 0 0.0 1.0 0.00 0.00 0.00 94 1011.2
20260903075551 69 0 0.0 1.0 0.00 0.07 0.00 94 1011.3
20260903075055 69 134 0.0 1.0 0.00 0.07 0.00 94 1011.3
20260903074610 69 0 0.0 0.0 0.00 0.07 0.00 94 1011.3
20260903074055 69 0 0.0 0.0 0.00 0.07 0.00 94 1011.4
20260903073553 69 0 0.0 0.0 0.00 0.07 0.00 94 1011.4
20260903073100 69 0 0.0 0.0 0.00 0.07 0.00 94 1011.3
20260903072555 69 0 0.0 0.0 0.00 0.07 0.00 94 1011.5
20260903072056 69 0 0.0 0.0 0.00 0.07 0.00 94 1011.4
20260903071605 69 0 0.0 0.0 0.00 0.07 0.00 93 1011.5
20260903071057 69 0 0.0 1.0 0.00 0.07 0.00 94 1011.5
20260903070556 69 0 0.0 1.0 0.00 0.07 0.00 93 1011.5
20260903070105 69 0 0.0 1.0 0.00 0.07 0.00 94 1011.5
20260903065556 69 0 0.0 1.0 0.00 1.04 0.00 93 1011.5
20260903065053 69 80 0.0 1.0 0.00 1.04 0.00 93 1011.6
20260903064603 70 0 0.0 1.0 0.00 1.04 0.00 93 1011.6
20260903064057 70 0 0.0 1.0 0.00 1.04 0.00 93 1011.7
20260903063557 70 144 0.0 1.0 0.00 1.04 0.00 93 1011.6
20260903063106 70 0 0.0 1.0 0.00 1.04 0.00 93 1011.6
20260903062556 70 0 0.0 1.0 0.00 1.04 0.00 93 1011.7
20260903062057 70 0 0.0 1.0 0.00 1.04 0.00 93 1011.7
20260903061604 70 113 0.0 1.0 0.00 1.04 0.00 93 1011.7
20260903061057 70 113 0.0 1.0 0.00 1.04 0.00 93 1011.7
20260903060557 70 0 0.0 1.0 0.00 1.04 0.00 93 1011.7
20260903060101 70 0 0.0 0.0 0.00 1.04 0.00 93 1011.7
20260903055557 70 0 0.0 0.0 0.00 1.15 0.00 93 1011.7
20260903055057 70 0 0.0 0.0 0.00 1.15 0.00 92 1011.7
20260903054603 70 0 0.0 0.0 0.00 1.15 0.00 92 1011.7
20260903054058 70 0 0.0 0.0 0.00 1.15 0.00 92 1011.7
20260903053557 70 0 0.0 0.0 0.00 1.15 0.00 91 1011.8
20260903053114 70 0 0.0 0.0 0.00 1.15 0.00 91 1011.7
20260903052557 70 0 0.0 0.0 0.00 1.15 0.00 90 1011.8
20260903052057 71 0 0.0 0.0 0.00 1.15 0.00 90 1011.8
20260903051601 71 0 0.0 0.0 0.00 1.15 0.00 89 1011.9
20260903051100 72 0 0.0 0.0 0.00 1.15 0.00 88 1011.9
20260903050557 72 0 0.0 2.0 0.00 1.15 0.00 87 1012.0
20260903050107 73 151 0.0 3.0 0.00 1.15 0.00 86 1011.9
20260903045557 74 148 1.0 3.0 0.00 1.15 1.15 87 1011.9
20260903045056 74 160 2.0 3.0 0.00 1.15 1.15 87 1011.9
20260903044607 74 166 1.0 3.0 0.00 1.15 1.15 86 1011.9
20260903044056 74 132 1.0 3.0 0.00 1.15 1.15 86 1012.0
20260903043557 74 165 1.0 2.0 0.00 1.15 1.15 86 1011.9
20260903043103 74 134 1.0 3.0 0.00 1.15 1.15 86 1011.9
20260903042556 74 172 1.0 3.0 0.00 1.15 1.15 87 1011.9
20260903042053 73 153 2.0 3.0 0.00 1.15 1.15 87 1011.9
20260903041604 73 163 1.0 2.0 0.00 1.15 1.15 87 1011.9
20260903041056 73 150 0.0 2.0 0.00 1.15 1.15 87 1012.0
20260903040556 73 142 1.0 2.0 0.00 1.15 1.15 87 1012.0
20260903040105 73 159 1.0 2.0 0.00 1.15 1.15 87 1012.0
20260903035556 73 150 1.0 2.0 0.00 1.15 1.15 87 1012.1
20260903035056 73 142 1.0 2.0 0.00 1.15 1.15 87 1012.1
20260903034603 73 144 1.0 2.0 0.00 1.15 1.15 87 1012.1
20260903034053 73 172 1.0 2.0 0.00 1.15 1.15 87 1012.3
20260903033557 73 159 0.0 2.0 0.00 1.15 1.15 88 1012.2
20260903033113 73 168 0.0 2.0 0.00 1.15 1.15 88 1012.4
20260903032553 73 132 0.0 2.0 0.00 1.15 1.15 89 1012.3
20260903032053 72 153 1.0 2.0 0.00 1.15 1.15 90 1012.3
20260903031605 72 0 0.0 0.0 0.00 1.15 1.15 91 1012.2
20260903031055 71 0 0.0 1.0 0.00 1.15 1.15 91 1012.3
20260903030557 71 0 0.0 1.0 0.00 1.15 1.15 91 1012.3
20260903030107 71 0 0.0 0.0 0.00 1.15 1.15 91 1012.2
20260903025556 71 0 0.0 0.0 0.00 1.15 1.15 91 1012.3
20260903025056 71 0 0.0 0.0 0.00 1.15 1.15 90 1012.3
20260903024606 71 0 0.0 0.0 0.00 1.15 1.15 90 1012.3
20260903024057 71 0 0.0 0.0 0.00 1.15 1.15 89 1012.3
20260903023557 72 0 0.0 0.0 0.00 1.15 1.15 89 1012.4
20260903023102 72 0 0.0 0.0 0.00 1.15 1.15 88 1012.3
20260903022556 73 0 0.0 0.0 0.00 1.15 1.15 87 1012.3
20260903022100 73 0 0.0 0.0 0.00 1.15 1.15 87 1012.4
20260903021611 73 188 0.0 0.0 0.00 1.15 1.15 86 1012.3
20260903021057 74 0 0.0 0.0 0.00 1.15 1.15 86 1012.3
20260903020600 74 0 0.0 0.0 0.00 1.15 1.15 85 1012.1
20260903015556 75 0 0.0 0.0 0.00 1.15 1.15 84 1012.2
20260903015056 75 0 0.0 0.0 0.00 1.15 1.15 84 1012.2
20260903014601 75 0 0.0 0.0 0.00 1.15 1.15 84 1012.0
20260903014056 75 0 0.0 0.0 0.00 1.15 1.15 84 1011.9
20260903013556 76 0 0.0 0.0 0.00 1.15 1.15 84 1011.8
20260903013105 76 0 0.0 0.0 0.00 1.15 1.15 84 1011.8
20260903012555 76 0 0.0 1.0 0.00 1.15 1.15 83 1011.7
20260903012056 77 0 0.0 1.0 0.00 1.15 1.15 82 1011.7
20260903011624 77 0 0.0 0.0 0.00 1.15 1.15 82 1011.7
20260903011057 77 0 0.0 0.0 0.00 1.15 1.15 81 1011.7
20260903010552 77 0 0.0 0.0 0.00 1.15 1.15 81 1011.7
20260903010113 78 0 0.0 0.0 0.00 1.15 1.15 81 1011.6
20260903005556 78 0 0.0 0.0 0.00 1.15 1.15 80 1011.7
20260903005056 79 0 0.0 0.0 0.00 1.15 1.15 79 1011.7
20260903004605 79 0 0.0 1.0 0.00 1.15 1.15 78 1011.7
20260903004057 80 0 0.0 1.0 0.00 1.15 1.15 77 1011.6
20260903003557 80 0 0.0 0.0 0.00 1.15 1.15 77 1011.6
20260903003115 80 0 0.0 0.0 0.00 1.15 1.15 77 1011.6
20260903002557 81 0 0.0 1.0 0.00 1.15 1.15 76 1011.6
20260903002057 81 0 0.0 1.0 0.00 1.15 1.15 75 1011.5
20260903001608 81 0 0.0 1.0 0.00 1.15 1.15 74 1011.5
20260903001056 82 0 0.0 1.0 0.00 1.15 1.15 75 1011.5
20260903000552 82 0 0.0 1.0 0.00 1.15 1.15 74 1011.5
20260903000107 83 0 0.0 1.0 0.00 1.15 1.15 74 1011.6
20260902235556 83 0 0.0 1.0 0.00 1.15 1.15 73 1011.7
20260902235100 84 245 0.0 2.0 0.00 1.15 1.15 71 1011.7
20260902234602 84 0 0.0 2.0 0.00 1.15 1.15 71 1011.6
20260902234056 85 0 0.0 2.0 0.00 1.15 1.15 70 1011.6
20260902233557 86 0 0.0 2.0 0.00 1.15 1.15 69 1011.7
20260902233109 86 0 0.0 2.0 0.00 1.15 1.15 69 1011.7
20260902232553 86 248 0.0 1.0 0.00 1.15 1.15 68 1011.6
20260902232056 87 255 0.0 2.0 0.00 1.15 1.15 66 1011.6
20260902231607 88 234 0.0 3.0 0.00 1.15 1.15 64 1011.6
20260902231056 89 263 1.0 3.0 0.00 1.15 1.15 62 1011.6
20260902230552 90 276 2.0 3.0 0.00 1.15 1.15 62 1011.6
20260902230110 91 0 0.0 1.0 0.00 1.15 1.15 59 1011.6
20260902225556 92 0 0.0 1.0 0.00 1.15 1.15 59 1011.6
20260902225052 91 0 0.0 1.0 0.00 1.15 1.15 61 1011.6
20260902224602 91 134 0.0 0.0 0.00 1.15 1.15 62 1011.6
20260902224053 90 0 0.0 0.0 0.00 1.15 1.15 65 1011.6
20260902223557 89 0 0.0 1.0 0.00 1.15 1.15 64 1011.6
20260902223131 89 0 0.0 1.0 0.00 1.15 1.15 63 1011.6
20260902222559 90 0 0.0 1.0 0.00 1.15 1.15 63 1011.5
20260902222056 90 0 0.0 1.0 0.00 1.15 1.15 63 1011.6
20260902221620 90 72 0.0 1.0 0.00 1.15 1.15 64 1011.6
20260902221055 90 72 0.0 1.0 0.00 1.15 1.15 63 1011.6
20260902220555 89 142 0.0 1.0 0.00 1.15 1.15 64 1011.6
20260902220109 88 0 0.0 1.0 0.00 1.15 1.15 65 1011.6
20260902215553 89 316 0.0 1.0 0.00 1.15 1.15 62 1011.6
20260902215056 89 0 0.0 2.0 0.00 1.15 1.15 63 1011.6
20260902214601 89 0 0.0 2.0 0.00 1.15 1.15 63 1011.7
20260902214056 89 0 1.0 2.0 0.00 1.15 1.15 61 1011.7
20260902213555 90 0 0.0 2.0 0.00 1.15 1.15 63 1011.7
20260902213109 90 0 0.0 4.0 0.00 1.15 1.15 64 1011.8
20260902212556 89 0 0.0 4.0 0.00 1.15 1.15 62 1011.8
20260902212055 89 191 0.0 3.0 0.00 1.15 1.15 63 1011.8
20260902211614 89 169 1.0 3.0 0.00 1.15 1.15 62 1011.8
20260902211056 89 205 1.0 4.0 0.00 1.15 1.15 63 1011.9
20260902210555 88 0 0.0 4.0 0.00 1.15 1.15 63 1012.0
20260902210103 88 321 1.0 3.0 0.00 1.15 1.15 61 1012.0
20260902205555 88 204 0.0 4.0 0.00 1.15 1.15 63 1012.0
20260902205058 88 254 1.0 4.0 0.00 1.15 1.15 63 1012.0
20260902204603 88 204 1.0 4.0 0.00 1.15 1.15 64 1012.0
20260902204055 88 152 1.0 4.0 0.00 1.15 1.15 63 1012.1
20260902203555 88 198 0.0 4.0 0.00 1.15 1.15 63 1012.1
20260902203058 88 261 1.0 4.0 0.00 1.15 1.15 64 1012.3
20260902202556 87 0 2.0 4.0 0.00 1.15 1.15 64 1012.3
20260902202056 87 0 1.0 5.0 0.00 1.15 1.15 63 1012.3
20260902201634 87 246 1.0 5.0 0.00 1.15 1.15 64 1012.3
20260902201052 88 264 3.0 5.0 0.00 1.15 1.15 63 1012.2
20260902200555 88 198 0.0 3.0 0.00 1.15 1.15 64 1012.3
20260902200120 87 197 1.0 4.0 0.00 1.15 1.15 64 1012.4
20260902195556 87 169 1.0 4.0 0.00 1.15 1.15 65 1012.4
20260902195052 87 116 1.0 3.0 0.00 1.15 1.15 65 1012.3
20260902194602 86 0 0.0 5.0 0.00 1.15 1.15 64 1012.3
20260902194052 85 0 1.0 5.0 0.00 1.15 1.15 70 1012.4
20260902193559 85 32 2.0 5.0 0.00 1.15 1.15 64 1012.4
20260902193058 86 296 0.0 2.0 0.00 1.15 1.15 64 1012.3
20260902192555 86 292 1.0 2.0 0.00 1.15 1.15 66 1012.3
20260902192055 86 105 0.0 5.0 0.00 1.15 1.15 65 1012.4
20260902191606 85 0 0.0 5.0 0.00 1.15 1.15 65 1012.4
20260902191055 85 264 2.0 5.0 0.00 1.15 1.15 64 1012.5
20260902190555 85 176 0.0 3.0 0.00 1.15 1.15 65 1012.5
20260902190107 85 357 1.0 4.0 0.00 1.15 1.15 65 1012.6
20260902185557 86 0 1.0 5.0 0.00 1.15 1.15 66 1012.7
20260902185055 86 240 1.0 6.0 0.00 1.15 1.15 64 1012.8
20260902184601 86 163 1.0 6.0 0.00 1.15 1.15 67 1012.9
20260902184055 85 0 2.0 4.0 0.00 1.15 1.15 67 1012.9
20260902183553 85 250 1.0 4.0 0.00 1.15 1.15 65 1012.8
20260902183058 85 198 0.0 4.0 0.00 1.15 1.15 66 1012.8
20260902182556 85 0 1.0 5.0 0.00 1.15 1.15 64 1012.9
20260902182052 85 195 1.0 6.0 0.00 1.15 1.15 66 1012.9
20260902181612 84 248 0.0 6.0 0.00 1.15 1.15 67 1012.9
20260902181052 85 284 1.0 5.0 0.00 1.15 1.15 66 1013.1
20260902180555 84 179 2.0 4.0 0.00 1.15 1.15 67 1013.0
20260902180108 83 218 0.0 5.0 0.00 1.15 1.15 67 1012.9
20260902175556 83 260 1.0 6.0 0.00 1.15 1.15 67 1013.2
20260902175057 83 165 2.0 6.0 0.00 1.15 1.15 70 1013.3
20260902174608 83 165 2.0 6.0 0.00 1.15 1.15 70 1013.6
20260902174056 83 281 0.0 6.0 0.00 1.15 1.15 70 1013.6
20260902173552 83 256 3.0 6.0 0.00 1.15 1.15 70 1013.5
20260902173101 83 260 2.0 5.0 0.00 1.15 1.15 71 1013.7
20260902172555 83 117 2.0 6.0 0.00 1.15 1.15 71 1013.7
20260902172055 83 0 1.0 6.0 0.00 1.15 1.15 68 1013.7
20260902171611 83 64 2.0 6.0 0.00 1.15 1.15 70 1013.9
20260902171055 82 94 2.0 6.0 0.00 1.15 1.15 72 1013.9
20260902170555 81 143 3.0 6.0 0.00 1.15 1.15 72 1013.8
20260902170104 81 198 2.0 7.0 0.00 1.15 1.15 70 1013.7
20260902165555 81 265 3.0 7.0 0.00 1.15 1.15 72 1013.7
20260902165057 81 223 4.0 7.0 0.00 1.15 1.15 71 1013.7
20260902164614 81 136 2.0 8.0 0.00 1.15 1.15 71 1013.8
20260902164052 80 120 3.0 8.0 0.00 1.15 1.15 72 1013.9
20260902163552 80 164 3.0 7.0 0.00 1.15 1.15 72 1013.8
20260902163059 80 150 1.0 6.0 0.00 1.15 1.15 72 1013.8
20260902162554 80 190 1.0 6.0 0.00 1.15 1.15 74 1013.7
20260902162054 79 124 1.0 6.0 0.00 1.15 1.15 73 1013.7
20260902161607 79 140 2.0 6.0 0.00 1.15 1.15 73 1013.6
20260902161056 79 260 2.0 6.0 0.00 1.15 1.15 74 1013.7
20260902160559 79 198 2.0 6.0 0.00 1.15 1.15 74 1013.5
20260902160109 79 173 1.0 6.0 0.00 1.15 1.15 76 1013.4
20260902155552 78 181 2.0 6.0 0.00 1.15 1.15 74 1013.3
20260902155052 78 69 2.0 5.0 0.00 1.15 1.15 75 1013.4
20260902154614 77 335 2.0 7.0 0.00 1.15 1.15 75 1013.3
20260902154054 77 193 1.0 7.0 0.00 1.15 1.15 77 1013.4
20260902153553 77 248 1.0 6.0 0.00 1.15 1.15 76 1013.4
20260902153102 76 246 1.0 8.0 0.00 1.15 1.15 76 1013.4
20260902152558 76 201 3.0 8.0 0.00 1.15 1.15 77 1013.4
20260902152053 76 117 3.0 6.0 0.00 1.15 1.15 78 1013.4
20260902151621 76 148 2.0 5.0 0.00 1.15 1.15 80 1013.5
20260902151054 75 150 2.0 7.0 0.00 1.15 1.15 81 1013.3
20260902150553 74 142 1.0 7.0 0.00 1.15 1.15 81 1013.4
20260902145552 73 157 2.0 7.0 0.00 1.15 1.15 82 1013.4
20260902145053 73 204 3.0 7.0 0.00 1.15 1.15 84 1013.3
20260902144601 72 164 3.0 7.0 0.00 1.15 1.15 85 1013.4
20260902144053 72 188 3.0 9.0 0.00 1.15 1.15 84 1013.3
20260902143557 71 152 4.0 9.0 0.00 1.15 1.15 86 1013.4
20260902143057 71 164 5.0 10.0 0.00 1.15 1.15 85 1013.2
20260902142554 70 162 4.0 10.0 0.00 1.15 1.15 86 1013.5
20260902142054 70 134 5.0 9.0 0.00 1.15 1.15 86 1013.6
20260902141604 70 143 5.0 8.0 0.00 1.15 1.15 86 1013.7
20260902141053 69 181 5.0 8.0 0.00 1.15 1.15 87 1013.6
20260902140556 69 148 4.0 8.0 0.00 1.15 1.15 87 1013.6
20260902140107 68 108 3.0 7.0 0.00 1.15 1.15 88 1013.5
20260902135554 68 129 4.0 11.0 0.00 1.15 1.15 88 1013.6
20260902135053 68 144 6.0 11.0 0.00 1.15 1.15 87 1013.7
20260902134619 69 113 5.0 9.0 0.00 1.15 1.15 87 1013.4
20260902134054 68 91 5.0 9.0 0.00 1.15 1.15 87 1013.3
20260902133554 68 118 2.0 5.0 0.00 1.15 1.15 89 1013.6
20260902133108 68 143 2.0 5.0 0.00 1.15 1.15 90 1013.4
20260902132553 67 70 1.0 8.0 0.00 1.15 1.15 90 1013.6
20260902132053 66 135 1.0 8.0 0.00 1.15 1.15 90 1013.8
20260902131608 66 34 4.0 8.0 0.00 1.15 1.15 91 1013.7
20260902131053 66 125 3.0 6.0 0.00 1.15 1.15 91 1013.8
20260902130554 66 141 1.0 5.0 0.00 1.15 1.15 92 1013.9
20260902130114 65 152 2.0 4.0 0.00 1.15 1.15 92 1014.0
20260902125553 65 101 1.0 5.0 0.00 1.15 1.15 92 1013.8
20260902125053 65 140 1.0 5.0 0.00 1.15 1.15 94 1014.1
20260902124613 64 139 0.0 4.0 0.00 1.15 1.15 95 1014.1
20260902124053 63 150 1.0 7.0 0.00 1.15 1.15 95 1014.3
20260902123554 63 0 1.0 7.0 0.00 1.15 1.15 94 1014.3
20260902123111 63 86 5.0 7.0 0.00 1.15 1.15 95 1013.8
20260902122554 62 65 0.0 4.0 0.00 1.15 1.15 95 1013.6
20260902122054 62 252 0.0 7.0 0.00 1.15 1.15 95 1013.6
20260902121615 62 93 3.0 7.0 0.00 1.15 1.15 95 1013.2
20260902121053 62 65 0.0 6.0 0.00 1.15 1.15 95 1013.2
20260902120556 62 0 1.0 6.0 0.00 1.15 1.15 95 1013.2
20260902115553 62 129 0.0 3.0 0.00 1.15 1.15 95 1013.3
20260902115053 62 68 1.0 3.0 0.00 1.15 1.15 95 1013.4
20260902114557 62 78 1.0 4.0 0.00 1.15 1.15 95 1013.7
20260902114053 62 51 2.0 6.0 0.00 1.15 1.15 95 1013.5
20260902113556 62 64 3.0 6.0 0.00 1.15 1.15 95 1013.3
20260902113104 62 23 4.0 6.0 0.00 1.15 1.15 95 1013.3
20260902112554 62 30 2.0 5.0 0.00 1.15 1.15 95 1013.3
20260902112053 62 37 3.0 5.0 0.00 1.15 1.15 95 1013.6
20260902111603 62 11 2.0 3.0 0.00 1.15 1.15 95 1013.7
20260902111053 62 77 0.0 3.0 0.00 1.15 1.15 95 1013.8
20260902110553 62 78 1.0 3.0 0.00 1.15 1.15 94 1013.9
20260902110111 62 113 0.0 1.0 0.00 1.15 1.15 94 1014.1
20260902105553 62 115 0.0 2.0 0.00 1.15 1.15 94 1014.4
20260902105053 63 131 0.0 2.0 0.00 1.15 1.15 94 1014.3
20260902104558 63 153 1.0 2.0 0.00 1.15 1.15 94 1014.5
20260902104054 63 0 0.0 3.0 0.00 1.15 1.15 94 1014.7
20260902103552 63 0 0.0 4.0 0.00 1.15 1.15 94 1015.0
20260902103109 63 132 1.0 8.0 0.00 1.15 1.15 94 1015.5
20260902102553 63 222 1.0 9.0 0.00 1.15 1.15 94 1015.7
20260902102054 63 181 2.0 9.0 0.00 1.15 1.15 94 1015.9
20260902101604 63 212 4.0 9.0 0.00 1.15 1.15 95 1015.9
20260902101053 63 228 1.0 4.0 0.00 1.15 1.15 95 1015.5
20260902100553 63 54 1.0 5.0 0.00 1.15 1.15 95 1015.6
20260902100057 63 231 1.0 5.0 0.00 1.15 1.15 95 1014.7
20260902095552 63 283 1.0 5.0 0.00 1.15 1.15 95 1014.7
20260902095053 63 257 1.0 3.0 0.00 1.15 1.15 94 1014.6
20260902094604 63 153 0.0 3.0 0.00 1.15 1.15 94 1013.6
20260902094053 63 70 1.0 3.0 0.00 1.15 1.15 94 1013.6
20260902093553 63 142 1.0 3.0 0.00 1.15 1.15 94 1013.6
20260902093137 63 99 1.0 4.0 0.00 1.15 1.15 94 1013.6
20260902092553 62 154 1.0 4.0 0.00 1.15 1.15 94 1013.4
20260902092053 62 140 1.0 4.0 0.00 1.15 1.15 93 1013.1
20260902091626 63 148 1.0 3.0 0.00 1.15 1.15 93 1013.1
20260902091058 63 152 0.0 4.0 0.00 1.15 1.15 93 1013.0
20260902090557 63 135 1.0 5.0 0.00 1.15 1.15 93 1013.3
20260902090106 63 137 1.0 7.0 0.00 1.15 1.15 93 1013.2
20260902085556 63 153 2.0 7.0 0.00 1.15 1.15 93 1013.3
20260902085057 63 159 1.0 5.0 0.00 1.15 1.15 94 1013.4
20260902084603 63 71 2.0 5.0 0.00 1.15 1.15 94 1013.2
20260902084054 63 60 3.0 5.0 0.01 1.15 1.15 94 1013.1
20260902083556 63 56 1.0 9.0 0.01 1.15 1.15 94 1013.3
20260902083101 63 96 1.0 9.0 0.01 1.15 1.15 95 1013.0
20260902082556 63 153 3.0 13.0 0.02 1.15 1.15 95 1013.0